RJCHRJCW

Guest
Details From RJCH - HAKODATE
To RJCW - WAKKANAI
Flight Number -
Tags generated
Created
Modified
Stats Distance 226 nm / 418 km
Max Altitude 27,000 ft / 8,230 m
Waypoints 7
Social Downloads 1
Likes 0
Share VATSIM

Download

Looking for another format? Having issues loading an existing format? Contact us
Advertisement - Login to hide

Notes

Basic altitude profile: - Ascent Rate: 2500ft/min - Ascent Speed: 250kts - Cruise Altitude: 35000ft - Cruise Speed: 420kts - Descent Rate: 1500ft/min - Descent Speed: 250kts Options: - Use NATs: yes - Use PACOTS: yes - Use low airways: yes - Use high airways: yes

Route

RJCH SPE08 3E37 RUMOI V1 KABTO RJCW

ID Type Via Altitude Latitude Longitude Leg Dist Tot Dist Heading (true) Name
O RJCH APT - 0 ft / 0 m 41.77016˚ 140.82203˚ - 0 nm - HAKODATE
SPE08 FIX - 27,000 ft / 8,230 m 43.28940˚ 141.39530˚ 94 nm 94 nm 15° / 16° -
RUMOI FIX 3E37 (AWY-HI) 21,900 ft / 6,675 m 43.69934˚ 141.72903˚ 28 nm 123 nm 30° / 31° -
TESIO FIX V1 (AWY-LO) 9,000 ft / 2,743 m 44.90671˚ 141.78229˚ 72 nm 195 nm 2° / 2° -
YOROI FIX V1 (AWY-LO) 5,000 ft / 1,524 m 45.00864˚ 141.78558˚ 6 nm 201 nm 1° / 1° -
KABTO FIX V1 (AWY-LO) 4,000 ft / 1,219 m 45.23825˚ 141.78890˚ 13 nm 215 nm 1° / 1° -
O RJCW APT - 0 ft / 0 m 45.40411˚ 141.80093˚ 9 nm 225 nm 3° / 3° WAKKANAI

Altitude Profile

Advertisement - Login to hide

Weather


0- 5 10 15 20 25 30 35+ Temperature / ° C

Clouds and Precipitation
Forecast for 2018-05-21 06:00 UTC. Updated 6 minutes ago

Ground ~20,000 ft ~40,000 ft Winds

RJCH

Details ICAO RJCH (HKD)
Name HAKODATE
Region Japan
Timezone Asia/Tokyo (UTC+9.0)
Stats Elevation 151 ft / 46 m (AMSL)
Location 41.770161° 140.822030°
Runways 1
Magnetic Variation 9.257° W

METAR

RJCH 210300Z 23013KT 9999 FEW040 14/10 Q1017

Decode

TAF

TAF RJCH 202310Z 2100/2206 21010KT 9999 FEW020

Decode

Departure Runways

ID Width Length Bearing (true) Bearing (mag) Surface Threshold Offset Overrun Length
12 150 ft / 46 m 9,814 ft / 2,991 m 108.09° 117.35° Asphalt 0 ft / 0 m 197 ft / 60 m
30 150 ft / 46 m 9,814 ft / 2,991 m 288.11° 297.37° Asphalt 0 ft / 0 m 197 ft / 60 m

RJCW

Details ICAO RJCW (WKJ)
Name WAKKANAI
Region Japan
Timezone Asia/Tokyo (UTC+9.0)
Stats Elevation 30 ft / 9 m (AMSL)
Location 45.404111° 141.800926°
Runways 1
Magnetic Variation 10.162° W

METAR

RJCW 210300Z 20018KT 9999 FEW030 16/07 Q1013

Decode

TAF

Not found

Destination Runways

ID Width Length Bearing (true) Bearing (mag) Surface Threshold Offset Overrun Length
08 150 ft / 46 m 6,548 ft / 1,996 m 68.83° 78.99° Asphalt 0 ft / 0 m 200 ft / 61 m
26 150 ft / 46 m 6,548 ft / 1,996 m 248.85° 259.01° Asphalt 0 ft / 0 m 200 ft / 61 m

Approach Navaids

Runway Type Ident Frequency Range Bearing (true) Bearing (mag) Slope Elevation
08 Localiser IWK 111.10 MHz 18 nm / 33 km 68.85° 79.01° - 30 ft / 9 m (AMSL)
08 Glidescope IWK 111.10 MHz 10 nm / 19 km 68.84° 79.00° 3.00° 54 ft / 16 m (AMSL)

Popular Alternatives